Location: Vancouver
(49.2500°N, 123.1330°W)
Time: 09:52:27
(UTC-07:00)

AO-27 - Visible Passes

Search period start: 26 March 2017 00:00
Search period end: 05 April 2017 00:00
Orbit: 786 x 797 km, 98.8° (Epoch: 24 March)

Date Brightness Start Highest point End Pass type
(mag) Time Alt. Az. Time Alt. Az. Time Alt. Az.
26 Mar 9.7 03:35:03 10° NE 03:39:01 21° E 03:41:24 16° SE visible
26 Mar 7.7 05:13:46 10° N 05:18:57 62° WNW 05:22:10 23° SW visible
27 Mar 10.3 03:07:34 10° ENE 03:09:35 12° E 03:11:34 10° ESE visible
27 Mar 7.7 04:44:41 10° NNE 04:49:56 79° ESE 04:52:55 26° S visible
27 Mar 9.1 06:25:14 10° NNW 06:28:50 19° NW 06:32:26 10° W visible
28 Mar 8.5 04:15:47 10° NNE 04:20:48 45° E 04:23:40 23° SSE visible
28 Mar 8.6 05:55:37 10° N 06:00:08 30° WNW 06:04:27 11° WSW visible
29 Mar 9.4 03:47:10 10° NE 03:51:33 27° E 03:54:25 17° SE visible
29 Mar 7.9 05:26:15 10° N 05:31:18 50° WNW 05:35:11 16° SW visible
30 Mar 10.1 03:19:07 10° NE 03:22:10 15° E 03:25:10 10° ESE visible
30 Mar 7.6 04:57:06 10° NNE 05:02:20 84° WNW 05:05:56 21° SSW visible
31 Mar 8.2 04:28:06 10° NNE 04:33:16 57° ESE 04:36:41 21° S visible
31 Mar 8.8 06:08:13 10° N 06:12:25 25° WNW 06:16:34 10° WSW visible
01 Apr 9.1 03:59:21 10° NNE 04:04:04 33° E 04:07:26 17° SSE visible
01 Apr 8.2 05:38:47 10° N 05:43:38 40° WNW 05:48:11 11° SW visible
02 Apr 9.9 03:31:00 10° NE 03:34:44 19° E 03:38:10 11° SE visible
02 Apr 7.6 05:09:32 10° N 05:14:44 68° WNW 05:18:56 16° SSW visible
03 Apr 10.4 03:04:01 10° ENE 03:05:16 11° E 03:06:31 10° E visible
03 Apr 7.8 04:40:28 10° NNE 04:45:42 72° ESE 04:49:40 17° S visible
04 Apr 8.7 04:11:37 10° NNE 04:16:33 41° E 04:20:25 16° SSE visible
04 Apr 8.5 05:51:20 10° N 05:55:56 33° WNW 06:00:31 10° SW visible
